World > North America > United States > Missouri   City of Springfield, MO

Springfield, Missouri Regional Weather

Lat: 37.20N, Lon: 93.29W
Wx Zone: MOZ090Web Search

Helpful Tip: Type the letters wx in the search engine next time you need to find us.

Feedback
Springfield Weather Map
UTC Time: 3/3/2021, 18:33
Your Time:

Springfield, MO Regional Weather

Expires:202103031900;;419426
ASUS43 KEAX 031815
RWREAX

WEATHER ROUNDUP FOR EASTERN KANSAS AND NORTHWEST MISSOURI
NATIONAL WEATHER SERVICE KANSAS CITY/PLEASANT HILL MO
1200 PM CST WED MAR 03 2021


MOZ041-047>049-056>058-063>065-088>090-097-031900-
...EASTERN AND SOUTHERN MISSOURI...
  
CITY           SKY/WX    TMP DP  RH WIND       PRES   REMARKS
ST. LOUIS INTL SUNNY     66  27  23 W15       30.03F                  
6HR MIN TEMP:  40; 6HR MAX TEMP:  66;                                

SPIRIT OF STL  SUNNY     64  27  24 W13       30.03F                  
COLUMBIA       SUNNY     65  26  23 W10       30.04F                  
JEFFERSON CITY SUNNY     66  28  24 W12       30.06F                  
MEXICO         SUNNY     61  32  33 SW8       30.04S                  
HANNIBAL       SUNNY     61  23  23 W7        30.04F                  
ROLLA          SUNNY     62  28  27 W13       30.07F                  
LEBANON        SUNNY     63  25  23 W12       30.09F                  
OSAGE BEACH    SUNNY     64  27  24 W10       30.08F                  
SPRINGFIELD    SUNNY     62  28  27 W9G20     30.08F                  
BRANSON        SUNNY     59  27  29 W7        30.13F                  
JOPLIN         SUNNY     64  29  26 SW14G21   30.09F                  
WEST PLAINS    SUNNY     62  30  29 W10       30.12F                  
SIKESTON       SUNNY     59  41  51 S9G16     30.12F                  

$$


SKY/WX - Weather  TMP - Temperature  DP - Dew Point  RH - Relative Humidity
WIND - Wind Direction/Speed PRES - Barometric Pressure VSB - Visibility
WCI - Wind Chill Index E13G22 Wind - East Wind 13 mph/Gusts of 22 mph